TimeEDT,TemperatureF,Dew PointF,Humidity,Sea Level PressureIn,VisibilityMPH,Wind Direction,Wind SpeedMPH,Gust SpeedMPH,PrecipitationIn,Events,Conditions,WindDirDegrees,DateUTC
12:15 AM,42.8,33.1,69,30.11,10.0,NW,3.5,-,N/A,,Overcast,310,2012-10-07 04:15:00
12:34 AM,42.8,33.6,70,30.11,10.0,NW,3.5,-,N/A,,Overcast,310,2012-10-07 04:34:00
12:55 AM,42.8,33.8,70,30.10,10.0,NW,3.5,-,N/A,,Overcast,310,2012-10-07 04:55:00
1:15 AM,42.4,33.1,69,30.10,10.0,NNW,3.5,-,N/A,,Overcast,330,2012-10-07 05:15:00
1:34 AM,42.3,33.1,70,30.10,10.0,Calm,Calm,-,N/A,,Overcast,0,2012-10-07 05:34:00
1:55 AM,42.1,33.4,71,30.10,10.0,Calm,Calm,-,N/A,,Overcast,0,2012-10-07 05:55:00
2:14 AM,42.1,33.8,72,30.10,10.0,Calm,Calm,-,N/A,,Overcast,0,2012-10-07 06:14:00
2:34 AM,41.7,34.0,74,30.10,10.0,Calm,Calm,-,N/A,,Overcast,0,2012-10-07 06:34:00
3:14 AM,41.4,34.7,77,30.10,10.0,NW,4.6,-,N/A,,Overcast,320,2012-10-07 07:14:00
3:35 AM,41.2,34.0,76,30.09,10.0,Calm,Calm,-,N/A,,Overcast,0,2012-10-07 07:35:00
3:55 AM,41.0,34.3,77,30.09,10.0,Calm,Calm,-,N/A,,Overcast,0,2012-10-07 07:55:00
4:14 AM,40.6,34.2,78,30.09,10.0,Calm,Calm,-,N/A,,Overcast,0,2012-10-07 08:14:00
4:35 AM,40.6,34.7,79,30.09,10.0,Calm,Calm,-,N/A,,Overcast,0,2012-10-07 08:35:00
4:55 AM,40.6,34.3,78,30.09,10.0,Calm,Calm,-,N/A,,Overcast,0,2012-10-07 08:55:00
5:14 AM,40.1,34.2,79,30.08,10.0,Calm,Calm,-,N/A,,Overcast,0,2012-10-07 09:14:00
5:35 AM,39.4,34.0,81,30.08,10.0,NW,3.5,-,N/A,,Overcast,310,2012-10-07 09:35:00
5:55 AM,37.6,32.7,83,30.08,10.0,Calm,Calm,-,N/A,,Scattered Clouds,0,2012-10-07 09:55:00
6:14 AM,37.2,33.3,86,30.08,10.0,Calm,Calm,-,N/A,,Mostly Cloudy,0,2012-10-07 10:14:00
6:35 AM,37.8,34.0,86,30.08,10.0,Calm,Calm,-,N/A,,Overcast,0,2012-10-07 10:35:00
6:55 AM,37.2,33.6,87,30.09,10.0,Calm,Calm,-,N/A,,Overcast,0,2012-10-07 10:55:00
7:14 AM,37.2,34.0,88,30.09,10.0,Calm,Calm,-,N/A,,Overcast,0,2012-10-07 11:14:00
7:35 AM,37.4,33.8,87,30.10,10.0,Calm,Calm,-,N/A,,Overcast,0,2012-10-07 11:35:00
7:54 AM,37.4,34.0,87,30.09,10.0,Calm,Calm,-,N/A,,Overcast,0,2012-10-07 11:54:00
8:14 AM,37.9,34.7,88,30.09,10.0,Calm,Calm,-,N/A,,Overcast,0,2012-10-07 12:14:00
8:35 AM,38.5,35.1,87,30.09,10.0,Calm,Calm,-,N/A,,Overcast,0,2012-10-07 12:35:00
8:54 AM,39.4,35.6,86,30.10,10.0,Calm,Calm,-,N/A,,Overcast,0,2012-10-07 12:54:00
9:15 AM,39.4,34.0,81,30.11,10.0,Calm,Calm,-,N/A,,Overcast,0,2012-10-07 13:15:00
9:35 AM,40.3,32.9,75,30.11,10.0,Calm,Calm,-,N/A,,Overcast,0,2012-10-07 13:35:00
9:54 AM,41.2,32.7,72,30.11,10.0,Calm,Calm,-,N/A,,Overcast,0,2012-10-07 13:54:00
10:15 AM,41.4,33.8,74,30.11,10.0,Calm,Calm,-,N/A,,Overcast,0,2012-10-07 14:15:00
10:34 AM,42.1,34.2,74,30.11,10.0,Calm,Calm,-,N/A,,Overcast,0,2012-10-07 14:34:00
10:55 AM,42.8,33.1,69,30.11,10.0,Calm,Calm,-,N/A,,Overcast,0,2012-10-07 14:55:00
11:15 AM,43.5,33.1,67,30.11,10.0,NNE,3.5,-,N/A,,Overcast,20,2012-10-07 15:15:00
11:34 AM,43.5,32.5,65,30.10,10.0,Calm,Calm,-,N/A,,Overcast,0,2012-10-07 15:34:00
11:55 AM,43.7,32.0,63,30.10,10.0,Calm,Calm,-,N/A,,Overcast,0,2012-10-07 15:55:00
12:15 PM,43.7,30.0,59,30.11,10.0,Calm,Calm,-,N/A,,Overcast,0,2012-10-07 16:15:00
12:34 PM,44.4,31.8,61,30.11,10.0,Calm,Calm,-,N/A,,Overcast,0,2012-10-07 16:34:00
12:55 PM,44.6,29.3,55,30.11,10.0,Calm,Calm,-,N/A,,Overcast,0,2012-10-07 16:55:00
1:15 PM,45.5,30.7,56,30.11,10.0,Calm,Calm,-,N/A,,Overcast,0,2012-10-07 17:15:00
1:34 PM,45.7,31.1,57,30.10,10.0,Calm,Calm,-,N/A,,Overcast,0,2012-10-07 17:34:00
1:55 PM,46.2,29.3,52,30.09,10.0,Calm,Calm,-,N/A,,Overcast,0,2012-10-07 17:55:00
2:15 PM,47.1,29.8,51,30.08,10.0,Calm,Calm,-,N/A,,Overcast,0,2012-10-07 18:15:00
2:34 PM,47.3,29.8,51,30.08,10.0,Calm,Calm,-,N/A,,Overcast,0,2012-10-07 18:34:00
2:55 PM,47.5,29.5,50,30.08,10.0,SSW,3.5,-,N/A,,Overcast,200,2012-10-07 18:55:00
3:14 PM,46.4,32.9,59,30.08,10.0,SSW,5.8,-,N/A,,Overcast,200,2012-10-07 19:14:00
3:34 PM,46.4,34.0,62,30.08,10.0,SSW,5.8,-,N/A,,Overcast,200,2012-10-07 19:34:00
3:55 PM,45.7,33.6,63,30.08,10.0,South,5.8,-,N/A,,Overcast,180,2012-10-07 19:55:00
4:14 PM,46.2,33.6,61,30.08,10.0,South,3.5,-,N/A,,Overcast,190,2012-10-07 20:14:00
4:35 PM,46.6,34.0,62,30.08,10.0,SSW,4.6,-,N/A,,Overcast,210,2012-10-07 20:35:00
4:54 PM,46.4,33.8,62,30.07,10.0,South,4.6,-,N/A,,Overcast,170,2012-10-07 20:54:00
5:14 PM,46.6,34.2,62,30.08,10.0,South,6.9,-,N/A,,Overcast,170,2012-10-07 21:14:00
5:35 PM,45.7,33.4,62,30.08,10.0,South,3.5,-,N/A,,Overcast,190,2012-10-07 21:35:00
5:54 PM,45.5,34.7,66,30.08,10.0,South,5.8,-,N/A,,Overcast,190,2012-10-07 21:54:00
6:15 PM,45.0,35.1,68,30.08,10.0,SW,5.8,-,N/A,,Overcast,220,2012-10-07 22:15:00
6:35 PM,44.6,35.6,71,30.08,10.0,SSW,4.6,-,N/A,,Overcast,210,2012-10-07 22:35:00
6:54 PM,44.2,36.5,74,30.09,10.0,SSW,4.6,-,N/A,Rain,Light Rain,210,2012-10-07 22:54:00
7:15 PM,43.9,36.5,75,30.09,10.0,SW,5.8,-,N/A,,Overcast,220,2012-10-07 23:15:00
7:35 PM,43.0,36.3,77,30.10,10.0,SW,4.6,-,N/A,,Mostly Cloudy,220,2012-10-07 23:35:00
7:54 PM,43.2,36.5,77,30.10,10.0,SW,4.6,-,N/A,,Mostly Cloudy,230,2012-10-07 23:54:00
8:15 PM,43.2,36.9,78,30.10,10.0,SW,4.6,-,N/A,,Overcast,230,2012-10-08 00:15:00
8:35 PM,42.8,36.7,79,30.10,10.0,SW,4.6,-,N/A,,Overcast,230,2012-10-08 00:35:00
8:55 PM,42.1,36.5,81,30.11,10.0,SW,4.6,-,N/A,,Overcast,230,2012-10-08 00:55:00
9:14 PM,41.9,36.7,82,30.11,10.0,WSW,4.6,-,N/A,,Overcast,240,2012-10-08 01:14:00
9:35 PM,42.1,37.2,83,30.11,10.0,WSW,4.6,-,N/A,,Overcast,250,2012-10-08 01:35:00
9:55 PM,41.4,36.5,83,30.11,10.0,WSW,5.8,-,N/A,,Overcast,250,2012-10-08 01:55:00
10:14 PM,39.7,35.2,84,30.12,10.0,WSW,5.8,-,N/A,,Scattered Clouds,250,2012-10-08 02:14:00
10:35 PM,39.2,34.9,84,30.13,10.0,WSW,5.8,-,N/A,,Clear,240,2012-10-08 02:35:00
10:55 PM,37.9,34.0,86,30.13,10.0,WSW,4.6,-,N/A,,Clear,250,2012-10-08 02:55:00
11:14 PM,37.0,33.3,86,30.14,10.0,WSW,4.6,-,N/A,,Clear,240,2012-10-08 03:14:00
11:35 PM,37.8,34.3,87,30.14,10.0,Calm,Calm,-,N/A,,Clear,0,2012-10-08 03:35:00
11:55 PM,36.1,32.9,88,30.14,10.0,SW,3.5,-,N/A,,Clear,230,2012-10-08 03:55:00